Location: Unspecified
(0.0000°N, 0.0000°E)
Time: 18:48:54
(UTC+00:00)

Altair - Pass Details

Date: 24 November 2019
Orbit: 1502 x 1682 km, 47.2° (Epoch: 05 December)

Event Time Altitude Azimuth Distance (km) Brightness Sun altitude
Rises 21:07:41 0° 206° (SSW) 4,862 10.7 -46.0°
Reaches altitude 10° 21:11:07 10° 199° (SSW) 3,850 9.9 -46.7°
Enters shadow 21:15:39 28° 180° (S) 2,685 8.8 -47.7°
Maximum altitude 21:20:10 42° 131° (SE) 2,128 - -48.7°
Drops below altitude 10° 21:28:50 10° 63° (ENE) 3,710 - -50.5°
Sets 21:32:03 0° 56° (ENE) 4,671 - -51.2°
